Location: Newark
(42.7133°N, 87.7910°W)
Time: 03:12:35
(UTC+00:00)

Vanguard 1 - Pass Details

Date: 23 October 2019
Orbit: 652 x 3831 km, 34.2° (Epoch: 13 November)

Event Time Altitude Azimuth Distance (km) Brightness Sun altitude
Rises 23:41:18 0° 231° (SW) 3,478 14.0 -8.9°
Reaches altitude 10° 23:43:32 10° 223° (SW) 2,762 13.2 -9.3°
Maximum altitude 23:49:42 39° 155° (SSE) 1,966 11.4 -10.4°
Enters shadow 23:58:48 13° 95° (E) 4,273 12.7 -12.1°
